Location: Molveno
(46.1500°N, 10.9667°E)
Time: 01:43:32
(UTC+00:00)

Cosmos 2237 - Pass Details

Date: 05 July 2020
Orbit: 845 x 857 km, 70.8° (Epoch: 11 August)

Event Time Altitude Azimuth Distance (km) Brightness Sun altitude
Rises 19:56:01 0° 199° (SSW) 3,408 7.1 -7.0°
Reaches altitude 10° 19:58:27 10° 198° (SSW) 2,478 6.4 -7.3°
Maximum altitude 20:04:08 75° 113° (ESE) 888 4.2 -8.0°
Drops below altitude 10° 20:09:52 10° 30° (NNE) 2,500 6.9 -8.7°
Sets 20:12:20 0° 29° (NNE) 3,440 7.6 -9.0°
